This is the latest recevied weather packets stored in our database for station/object N8QQQ. If no packets are shown the sender has not sent any weather packets the latest 10 day(s).
| Time | Temp. | Humidity | Pressure | Rain* | Wind** | Luminosity | Snow |
|---|---|---|---|---|---|---|---|
| 1777559761 | 0.56° C | 93% | 1015.9 hPa | 1.78 mm | - | 80 W/m² | - |
| 1777559458 | 0.56° C | 94% | 1015.8 hPa | 0 mm | - | 103 W/m² | - |
| 1777559155 | 0.56° C | 95% | 1015.9 hPa | 1.78 mm | - | 104 W/m² | - |
| 1777558850 | 0.56° C | 94% | 1016.1 hPa | 1.78 mm | - | 91 W/m² | - |
| 1777558546 | 0.56° C | 95% | 1015.8 hPa | 0 mm | - | 86 W/m² | - |
| 1777558237 | 0° C | 95% | 1015.9 hPa | 0 mm | - | 85 W/m² | - |
| 1777557933 | 0° C | 95% | 1016 hPa | 0 mm | - | 73 W/m² | - |
| 1777557630 | 0.56° C | 96% | 1015.9 hPa | 1.27 mm | - | 72 W/m² | - |
| 1777557326 | 0° C | 95% | 1015.8 hPa | 1.27 mm | - | 68 W/m² | - |
| 1777557022 | 0° C | 96% | 1016 hPa | 0 mm | - | 64 W/m² | - |
| 1777556718 | 0° C | 96% | 1015.9 hPa | 0 mm | - | 66 W/m² | - |
| 1777556415 | 0° C | 96% | 1016 hPa | 0 mm | - | 66 W/m² | - |
| 1777556115 | 0° C | 97% | 1015.8 hPa | 0 mm | - | 64 W/m² | - |
| 1777555810 | 0° C | 97% | 1015.7 hPa | 0 mm | - | 55 W/m² | - |
| 1777555506 | 0° C | 97% | 1016 hPa | 0 mm | - | 42 W/m² | - |
| 1777555202 | 0° C | 97% | 1015.8 hPa | 0 mm | - | 49 W/m² | - |
| 1777554900 | 0° C | 97% | 1016.1 hPa | 0 mm | - | 49 W/m² | - |
| 1777554596 | 0° C | 98% | 1015.6 hPa | 0 mm | - | 45 W/m² | - |
| 1777554293 | -0.56° C | 97% | 1016 hPa | 0 mm | - | 43 W/m² | - |
| 1777553991 | 0° C | 98% | 1015.7 hPa | 0 mm | - | 41 W/m² | - |
| 1777553687 | -0.56° C | 98% | 1015.8 hPa | 0 mm | - | 39 W/m² | - |
| 1777553384 | -0.56° C | 98% | 1015.8 hPa | 0 mm | - | 37 W/m² | - |
| 1777553080 | -0.56° C | 98% | 1015.7 hPa | 0 mm | - | 35 W/m² | - |
| 1777552779 | -0.56° C | 98% | 1015.8 hPa | 0 mm | - | 33 W/m² | - |
| 1777552475 | -0.56° C | 98% | 1015.9 hPa | 0 mm | - | 32 W/m² | - |
* Rain latest hour (hover to see other rain measurements)
** Current wind speed in m/s (hover to see current wind gust speed)